DW7447 Weather Reports


Display with metric or nautical units.
time (UTC)temp
F
wind
direction
speed
MPH
gust
MPH
rain 1hr
in
rain 24hr
in
rain mn
in
humidity
%
barometer
mb
20260508202635 53 266 2.0 11.0 0.01 0.05 0.05 83 1019.5
20260508202135 54 235 4.0 11.0 0.00 0.04 0.04 83 1019.5
20260508201633 54 262 4.0 9.0 0.00 0.04 0.04 83 1019.6
20260508201133 54 251 4.0 9.0 0.00 0.04 0.04 81 1019.4
20260508200636 54 240 2.0 6.0 0.00 0.04 0.04 80 1019.3
20260508195133 54 128 3.0 7.0 0.00 0.04 0.04 83 1019.0
20260508194634 54 147 3.0 5.0 0.00 0.04 0.04 82 1018.9
20260508194133 54 44 1.0 5.0 0.00 0.04 0.04 82 1018.9
20260508193635 54 44 0.0 5.0 0.00 0.04 0.04 81 1018.7
20260508193134 54 44 1.0 5.0 0.00 0.04 0.04 80 1018.6
20260508192636 55 44 0.0 7.0 0.00 0.04 0.04 80 1018.6
20260508191634 55 10 4.0 7.0 0.00 0.04 0.04 79 1018.5
20260508191133 55 56 0.0 6.0 0.00 0.04 0.04 79 1018.5
20260508190634 55 56 1.0 6.0 0.00 0.04 0.04 78 1018.5
20260508190133 55 73 2.0 5.0 0.00 0.04 0.04 77 1018.4
20260508185634 56 134 2.0 9.0 0.00 0.04 0.04 77 1018.4
20260508185134 56 173 3.0 9.0 0.00 0.04 0.04 76 1018.4
20260508184633 56 107 1.0 5.0 0.00 0.04 0.04 76 1018.4
20260508184135 56 99 1.0 5.0 0.00 0.04 0.04 76 1018.4
20260508183134 56 265 3.0 7.0 0.00 0.04 0.04 78 1018.3
20260508181634 57 113 2.0 7.0 0.00 0.04 0.04 80 1018.1
20260508181135 57 62 4.0 7.0 0.00 0.04 0.04 80 1018.1
20260508180635 57 49 2.0 6.0 0.00 0.04 0.04 80 1018.0
20260508175637 58 11 2.0 8.0 0.00 0.04 0.04 79 1018.0
20260508174635 58 63 3.0 8.0 0.00 0.04 0.04 77 1017.9
20260508173633 58 54 4.0 8.0 0.00 0.04 0.04 78 1017.9
20260508172634 58 18 4.0 11.0 0.00 0.04 0.04 77 1017.7
20260508172135 58 42 4.0 8.0 0.00 0.04 0.04 78 1017.7
20260508171633 59 61 5.0 8.0 0.00 0.04 0.04 78 1017.6
20260508171136 59 11 3.0 12.0 0.00 0.04 0.04 77 1017.5
20260508170633 59 78 5.0 12.0 0.00 0.04 0.04 77 1017.6
20260508165635 58 73 3.0 9.0 0.00 0.04 0.04 75 1017.5
20260508165136 58 68 3.0 11.0 0.00 0.04 0.04 74 1017.5
20260508164649 58 62 5.0 11.0 0.00 0.04 0.04 75 1017.4
20260508164133 58 73 2.0 11.0 0.00 0.04 0.04 75 1017.5
20260508163633 59 38 4.0 11.0 0.00 0.04 0.04 74 1017.4
20260508163137 59 45 5.0 9.0 0.00 0.04 0.04 73 1017.5
20260508162133 60 42 5.0 11.0 0.00 0.04 0.04 70 1017.4
20260508160633 61 52 6.0 12.0 0.00 0.04 0.04 67 1017.4
20260508160133 61 42 5.0 12.0 0.00 0.04 0.04 67 1017.4
20260508155638 61 69 4.0 9.0 0.00 0.04 0.04 69 1017.4
20260508155133 61 86 5.0 11.0 0.00 0.04 0.04 68 1017.4
20260508154635 61 68 6.0 11.0 0.00 0.04 0.04 70 1017.4
20260508153634 60 4 6.0 12.0 0.00 0.04 0.04 67 1017.5
20260508153134 60 63 2.0 7.0 0.00 0.04 0.04 72 1017.5
20260508152134 59 61 4.0 7.0 0.00 0.04 0.04 70 1017.5
20260508151635 59 61 4.0 7.0 0.00 0.04 0.04 72 1017.5
20260508151135 58 24 3.0 7.0 0.00 0.04 0.04 72 1017.6
20260508150635 58 0 4.0 7.0 0.00 0.04 0.04 73 1017.4
20260508150134 58 83 3.0 7.0 0.00 0.04 0.04 75 1017.5
20260508145636 58 17 3.0 7.0 0.00 0.04 0.04 75 1017.6
20260508145133 58 32 3.0 7.0 0.00 0.04 0.04 76 1017.4
20260508144633 57 353 2.0 11.0 0.00 0.04 0.04 77 1017.4
20260508144133 57 0 5.0 11.0 0.00 0.04 0.04 76 1017.4
20260508143633 57 340 5.0 11.0 0.00 0.04 0.04 75 1017.5
20260508142637 58 348 9.0 14.0 0.00 0.04 0.04 72 1017.4
20260508142132 58 281 7.0 12.0 0.00 0.04 0.04 72 1017.4
20260508141634 58 348 3.0 6.0 0.00 0.04 0.04 70 1017.4
20260508141133 59 334 3.0 6.0 0.00 0.04 0.04 70 1017.3
20260508140134 60 327 2.0 7.0 0.00 0.04 0.04 69 1017.3
20260508135634 60 251 2.0 7.0 0.00 0.04 0.04 66 1017.2
20260508135135 60 285 3.0 8.0 0.00 0.04 0.04 65 1017.1
20260508134633 60 0 2.0 9.0 0.00 0.04 0.04 65 1017.1
20260508134135 61 278 3.0 11.0 0.00 0.04 0.04 63 1017.0
20260508133634 61 264 3.0 11.0 0.00 0.04 0.04 62 1017.0
20260508133134 61 224 3.0 9.0 0.00 0.04 0.04 63 1017.0
20260508132633 61 309 3.0 9.0 0.00 0.04 0.04 62 1017.1
20260508132135 61 251 4.0 8.0 0.00 0.04 0.04 61 1017.1
20260508131635 61 202 3.0 8.0 0.00 0.04 0.04 65 1017.1
20260508131135 61 168 3.0 9.0 0.00 0.04 0.04 64 1017.1
20260508130633 61 166 4.0 12.0 0.00 0.04 0.04 64 1017.1
20260508130134 61 96 4.0 12.0 0.00 0.04 0.04 65 1017.1
20260508125635 61 217 4.0 11.0 0.00 0.04 0.04 65 1017.2
20260508125134 61 200 4.0 12.0 0.00 0.04 0.04 65 1017.2
20260508124635 61 235 5.0 14.0 0.03 0.04 0.04 65 1017.1
20260508123134 60 168 5.0 12.0 0.04 0.04 0.04 70 1017.1
20260508122636 60 196 7.0 12.0 0.04 0.04 0.04 75 1017.1
20260508122137 59 237 2.0 6.0 0.04 0.04 0.04 72 1017.1
20260508121635 59 219 3.0 6.0 0.04 0.04 0.04 76 1017.1
20260508121131 58 214 2.0 6.0 0.04 0.04 0.04 78 1017.1
20260508120633 58 207 2.0 7.0 0.04 0.04 0.04 78 1017.1
20260508120133 58 323 3.0 7.0 0.04 0.04 0.04 75 1017.2
20260508115633 58 195 4.0 7.0 0.04 0.04 0.04 70 1017.2
20260508115133 58 274 2.0 7.0 0.04 0.04 0.04 70 1017.2
20260508114634 59 233 4.0 9.0 0.01 0.01 0.01 65 1017.2
20260508114134 59 230 6.0 9.0 0.00 0.00 0.00 62 1017.1
20260508113633 59 243 4.0 13.0 0.00 0.00 0.00 60 1017.0
20260508113133 60 204 4.0 13.0 0.00 0.00 0.00 60 1017.1
20260508112633 60 252 2.0 11.0 0.00 0.00 0.00 61 1017.0
20260508112133 60 204 6.0 11.0 0.00 0.00 0.00 61 1017.0
20260508111634 60 235 5.0 9.0 0.00 0.00 0.00 62 1016.9
20260508111133 60 258 4.0 9.0 0.00 0.00 0.00 62 1017.0
20260508110634 60 219 4.0 12.0 0.00 0.00 0.00 61 1016.9
20260508110132 60 237 6.0 12.0 0.00 0.00 0.00 61 1016.8
20260508105633 60 247 5.0 11.0 0.00 0.00 0.00 62 1017.0
20260508105133 60 199 5.0 12.0 0.00 0.00 0.00 62 1016.9
20260508104134 60 231 4.0 9.0 0.00 0.00 0.00 61 1016.9
20260508103633 60 244 3.0 7.0 0.00 0.00 0.00 61 1016.9
20260508103133 61 259 2.0 11.0 0.00 0.00 0.00 59 1016.8
20260508102634 61 247 5.0 11.0 0.00 0.00 0.00 61 1016.9
20260508102133 60 279 2.0 7.0 0.00 0.00 0.00 64 1016.8
20260508101635 59 178 2.0 8.0 0.00 0.00 0.00 65 1016.9
20260508101139 59 209 5.0 9.0 0.00 0.00 0.00 65 1016.9
20260508100633 60 231 5.0 9.0 0.00 0.00 0.00 63 1016.9
20260508100133 61 233 5.0 11.0 0.00 0.00 0.00 64 1016.9
20260508095633 61 209 4.0 11.0 0.00 0.00 0.00 64 1016.9
20260508095133 62 128 2.0 11.0 0.00 0.00 0.00 64 1016.9
20260508094633 61 182 6.0 13.0 0.00 0.00 0.00 64 1016.8
20260508094133 61 195 5.0 13.0 0.00 0.00 0.00 65 1016.8
20260508092633 60 151 5.0 12.0 0.00 0.00 0.00 66 1016.8
20260508092133 60 175 3.0 11.0 0.00 0.00 0.00 68 1016.8
20260508091633 59 151 5.0 11.0 0.00 0.00 0.00 67 1016.8
20260508090634 59 248 3.0 11.0 0.00 0.00 0.00 70 1016.8
20260508090133 59 275 3.0 11.0 0.00 0.00 0.00 69 1016.7
20260508085632 58 255 4.0 13.0 0.00 0.00 0.00 70 1016.8
20260508085132 58 250 5.0 13.0 0.00 0.00 0.00 71 1016.8
20260508084634 57 221 5.0 12.0 0.00 0.00 0.00 73 1016.9
20260508084138 56 176 5.0 9.0 0.00 0.00 0.00 75 1016.9
20260508083633 55 178 3.0 8.0 0.00 0.00 0.00 76 1016.8
20260508083133 55 235 4.0 9.0 0.00 0.00 0.00 77 1016.8
20260508082633 55 193 5.0 11.0 0.00 0.00 0.00 77 1016.9
20260508082133 54 176 4.0 12.0 0.00 0.00 0.00 78 1016.8
20260508081634 54 183 6.0 12.0 0.00 0.00 0.00 80 1016.8
20260508081134 53 219 1.0 8.0 0.00 0.00 0.00 81 1016.8
20260508080634 53 149 4.0 8.0 0.00 0.00 0.00 81 1016.7
20260508080132 53 164 4.0 11.0 0.00 0.00 0.00 81 1016.7
20260508075632 53 185 5.0 11.0 0.00 0.00 0.00 81 1016.7
20260508075132 53 186 4.0 9.0 0.00 0.00 0.00 81 1016.7
20260508074634 53 214 6.0 13.0 0.00 0.00 0.00 80 1016.6
20260508073635 53 234 5.0 9.0 0.00 0.00 0.00 80 1016.6
20260508073134 53 203 5.0 9.0 0.00 0.00 0.00 80 1016.6
20260508072634 53 233 6.0 9.0 0.00 0.00 0.00 79 1016.4
20260508072133 53 275 3.0 11.0 0.00 0.00 0.00 79 1016.4
20260508071635 53 223 7.0 15.0 0.00 0.00 0.00 79 1016.3
20260508071136 53 172 5.0 15.0 0.00 0.00 0.00 79 1016.2
20260508070134 52 210 6.0 16.0 0.00 0.00 0.00 79 1016.1
20260508065633 52 171 9.0 16.0 0.00 0.00 0.00 79 1016.0
20260508065133 52 196 7.0 14.0 0.00 0.00 0.00 79 1015.9
20260508064632 52 220 6.0 15.0 0.00 0.00 0.00 80 1015.8
20260508064133 51 197 8.0 15.0 0.00 0.00 0.00 80 1015.7
20260508063633 51 220 8.0 15.0 0.00 0.00 0.00 81 1015.7
20260508062633 51 202 7.0 15.0 0.00 0.00 0.00 82 1015.6
20260508062133 50 172 7.0 14.0 0.00 0.00 0.00 83 1015.5
20260508061633 50 159 6.0 14.0 0.00 0.00 0.00 84 1015.4
20260508061133 50 200 7.0 15.0 0.00 0.00 0.00 84 1015.5
20260508060632 50 189 6.0 15.0 0.00 0.00 0.00 84 1015.5
20260508060135 50 155 7.0 15.0 0.00 0.00 0.00 84 1015.5
20260508055633 50 195 6.0 16.0 0.00 0.00 0.00 84 1015.4
20260508054634 50 176 5.0 16.0 0.00 0.00 0.00 84 1015.4
20260508054135 50 186 6.0 16.0 0.00 0.00 0.00 84 1015.3
20260508053632 50 182 9.0 16.0 0.00 0.00 0.00 84 1015.3
20260508053133 50 189 8.0 14.0 0.00 0.00 0.00 84 1015.3
20260508052634 49 186 9.0 14.0 0.00 0.00 0.00 84 1015.2
20260508052133 49 158 8.0 14.0 0.00 0.00 0.00 85 1015.2
20260508051632 49 182 7.0 14.0 0.00 0.00 0.00 84 1015.3
20260508050634 49 175 9.0 16.0 0.00 0.00 0.00 85 1015.3
20260508050135 49 169 8.0 16.0 0.00 0.00 0.00 85 1015.3
20260508045633 49 173 9.0 14.0 0.00 0.00 0.00 85 1015.2
20260508045134 49 195 9.0 15.0 0.00 0.00 0.00 85 1015.3
20260508044632 49 171 6.0 15.0 0.00 0.00 0.00 85 1015.2
20260508044133 49 178 7.0 13.0 0.00 0.00 0.00 85 1015.2
20260508043133 49 159 6.0 12.0 0.00 0.00 0.00 85 1015.1
20260508042133 49 179 6.0 13.0 0.00 0.00 0.00 85 1015.2
20260508041134 48 175 7.0 14.0 0.00 0.00 0.00 85 1015.2
20260508040634 48 190 7.0 12.0 0.00 0.00 0.00 85 1015.1
20260508040134 48 204 6.0 12.0 0.00 0.00 0.00 85 1015.1
20260508035635 48 165 5.0 9.0 0.00 0.00 0.00 85 1015.1
20260508035133 48 203 5.0 9.0 0.00 0.00 0.00 84 1015.1
20260508034635 49 175 3.0 11.0 0.00 0.00 0.00 84 1015.1
20260508034135 49 196 5.0 11.0 0.00 0.00 0.00 84 1015.0
20260508033633 49 179 6.0 15.0 0.00 0.00 0.00 84 1015.0
20260508033134 49 206 7.0 15.0 0.00 0.00 0.00 84 1015.0
20260508032133 49 188 5.0 12.0 0.00 0.00 0.00 84 1015.0
20260508031636 49 180 5.0 11.0 0.00 0.00 0.00 83 1015.0
20260508031133 49 166 5.0 14.0 0.00 0.00 0.00 83 1014.9
20260508030632 50 173 7.0 17.0 0.00 0.00 0.00 83 1015.0
20260508030132 50 185 9.0 17.0 0.00 0.00 0.00 82 1014.9
20260508025633 50 183 6.0 12.0 0.00 0.00 0.00 82 1014.8
20260508025134 50 173 7.0 13.0 0.00 0.00 0.00 82 1014.8
20260508024634 50 192 6.0 13.0 0.00 0.00 0.00 82 1014.9
20260508024134 50 176 7.0 15.0 0.00 0.00 0.00 82 1014.9
20260508023133 50 168 7.0 14.0 0.00 0.00 0.00 82 1014.9
20260508022634 50 158 8.0 14.0 0.00 0.00 0.00 82 1015.0
20260508021633 50 172 6.0 14.0 0.00 0.00 0.00 81 1014.9
20260508021133 50 202 6.0 14.0 0.00 0.00 0.00 81 1015.0
20260508020630 51 213 9.0 17.0 0.00 0.00 0.00 82 1014.9
20260508020104 51 164 9.0 17.0 0.00 0.00 0.00 81 1014.9
20260508015603 51 149 9.0 15.0 0.00 0.00 0.00 82 1014.8
20260508015103 51 226 8.0 14.0 0.00 0.00 0.00 82 1014.9
20260508014604 51 210 8.0 16.0 0.00 0.00 0.00 81 1014.9
20260508014104 51 168 9.0 16.0 0.00 0.00 0.00 82 1014.8
20260508013104 50 176 10.0 19.0 0.00 0.00 0.00 81 1014.9
20260508012104 50 207 9.0 17.0 0.00 0.00 0.00 81 1014.9
20260508011602 50 158 7.0 15.0 0.00 0.00 0.00 81 1014.9
20260508011032 50 171 7.0 16.0 0.00 0.00 0.00 81 1014.9
20260508010532 51 151 9.0 16.0 0.00 0.00 0.00 81 1014.9
20260508010034 51 135 9.0 16.0 0.00 0.00 0.00 80 1014.8
20260508005532 51 188 5.0 17.0 0.00 0.00 0.00 80 1014.9
20260508005033 51 169 9.0 17.0 0.00 0.00 0.00 80 1015.0
20260508004534 51 206 9.0 21.0 0.00 0.00 0.00 80 1015.0
20260508004033 51 183 13.0 21.0 0.00 0.00 0.00 80 1015.1
20260508003532 51 168 9.0 18.0 0.00 0.00 0.00 79 1015.0
20260508003035 51 164 8.0 17.0 0.00 0.00 0.00 79 1015.1
20260508002533 51 159 10.0 18.0 0.00 0.00 0.00 79 1015.1
20260508002033 51 171 11.0 18.0 0.00 0.00 0.00 78 1015.1
20260508001033 51 180 6.0 17.0 0.00 0.00 0.00 78 1015.2
20260508000532 51 161 7.0 17.0 0.00 0.00 0.00 78 1015.1
20260508000032 51 203 10.0 17.0 0.00 0.00 0.00 78 1015.3
20260507235534 51 175 9.0 19.0 0.00 0.00 0.00 78 1015.3
20260507235035 51 176 9.0 19.0 0.00 0.00 0.00 78 1015.1
20260507234533 51 178 8.0 17.0 0.00 0.00 0.00 78 1015.1
20260507234035 51 166 8.0 17.0 0.00 0.00 0.00 79 1015.1
20260507233033 51 176 10.0 21.0 0.00 0.00 0.00 78 1015.1
20260507232533 51 180 6.0 21.0 0.00 0.00 0.00 79 1015.0
20260507232034 51 188 10.0 22.0 0.00 0.00 0.00 79 1015.1
20260507231533 51 145 11.0 22.0 0.00 0.00 0.00 79 1015.1
20260507231032 51 172 10.0 18.0 0.00 0.00 0.00 79 1015.1
20260507230532 51 164 8.0 18.0 0.00 0.00 0.00 79 1015.1
20260507225533 51 152 8.0 19.0 0.00 0.00 0.00 79 1015.1
20260507225033 51 210 7.0 17.0 0.00 0.00 0.00 79 1015.0
20260507224535 51 175 6.0 18.0 0.00 0.00 0.00 79 1015.1
20260507224034 51 192 13.0 18.0 0.00 0.00 0.00 79 1014.9
20260507223532 51 173 10.0 18.0 0.00 0.00 0.00 79 1014.8
20260507223033 51 141 11.0 16.0 0.00 0.00 0.00 79 1014.9
20260507222533 51 141 7.0 20.0 0.00 0.00 0.00 79 1014.9
20260507222034 51 159 7.0 20.0 0.00 0.00 0.00 79 1015.0
20260507221532 51 135 9.0 16.0 0.00 0.00 0.00 79 1015.0
20260507221033 51 157 9.0 17.0 0.00 0.00 0.00 78 1014.9
20260507220033 51 141 8.0 21.0 0.00 0.00 0.00 78 1015.1
20260507215535 51 189 10.0 21.0 0.00 0.00 0.00 77 1015.1
20260507215032 51 152 10.0 18.0 0.00 0.00 0.00 77 1015.1
20260507214032 51 121 8.0 16.0 0.00 0.00 0.00 77 1015.1
20260507213532 51 158 6.0 14.0 0.00 0.00 0.00 77 1015.2
20260507213036 51 142 8.0 16.0 0.00 0.00 0.00 77 1015.1
20260507212535 51 147 7.0 19.0 0.00 0.00 0.00 77 1015.1
20260507212033 51 144 10.0 19.0 0.00 0.00 0.00 77 1015.0
20260507211033 52 178 6.0 17.0 0.00 0.00 0.00 78 1015.1
20260507210534 52 165 10.0 17.0 0.00 0.00 0.00 77 1015.0
20260507210029 52 130 6.0 16.0 0.00 0.00 0.00 77 1015.1
20260507205532 52 155 8.0 16.0 0.00 0.00 0.00 77 1014.9
20260507205032 52 149 9.0 17.0 0.00 0.00 0.00 77 1014.9
20260507204533 51 145 9.0 17.0 0.00 0.00 0.00 78 1014.9
20260507203532 51 137 9.0 18.0 0.00 0.00 0.00 79 1014.9